Location: Unspecified
(0.0000°N, 0.0000°E)
Time: 11:42:45
(UTC+00:00)

SRMSAT - Pass Details

Date: 19 July 2019
Orbit: 848 x 865 km, 20.0° (Epoch: 07 December)

Event Time Altitude Azimuth Distance (km) Brightness Sun altitude
Exits shadow 03:30:55 25° 12° (NNE) 1,653 ? -35.9°
Maximum altitude 03:31:16 25° 17° (NNE) 1,648 ? -35.8°
Drops below altitude 10° 03:36:00 10° 71° (ENE) 2,456 ? -34.7°
Sets 03:39:01 0° 84° (E) 3,392 ? -34.0°
